Voltar ao catálogo

DIAMANT B-P4 R/B

AtivoLEO
NORAD 7647·ROCKET BODY·🇫🇷 France

Lançado Feb 6, 1975 de Guiana Space Centre

Loading…

Próximas Passagens (próximas 24 horas)

TLE

AtualizadoSource: Space-Track

Época: Sep 14, 2026, 13:45 UTC

1  7647U 75010B   26257.57359105 -.00000068  00000-0  56909-4 0  9992
2  7647  49.8260 315.0165 0217364 182.2138 177.7810 13.82361313603409

Acompanhe DIAMANT B-P4 R/B em tempo real com AllMySat

Download on the App Store